| time (UTC) | temp C | wind direction | speed KPH | gust KPH | rain 1hr cm | rain 24hr cm | rain mn cm | humidity % | barometer mb |
| 20260509041142 | 23 | 131 | 8.0 | 9.7 | 0.00 | 0.00 | 0.00 | 90 | 1011.9 |
| 20260509040640 | 23 | 126 | 3.2 | 4.8 | 0.00 | 0.00 | 0.00 | 90 | 1011.9 |
| 20260509040137 | 23 | 86 | 3.2 | 4.8 | 0.00 | 0.00 | 0.00 | 90 | 1011.8 |
| 20260509035634 | 23 | 114 | 8.0 | 9.7 | 0.00 | 0.00 | 0.00 | 90 | 1012.0 |
| 20260509035130 | 23 | 130 | 4.8 | 6.4 | 0.00 | 0.00 | 0.00 | 90 | 1011.8 |
| 20260509034628 | 23 | 101 | 6.4 | 9.7 | 0.00 | 0.00 | 0.00 | 90 | 1011.7 |
| 20260509034125 | 23 | 148 | 0.0 | 1.6 | 0.00 | 0.00 | 0.00 | 90 | 1011.5 |
| 20260509033622 | 23 | 159 | 6.4 | 6.4 | 0.00 | 0.00 | 0.00 | 90 | 1011.5 |
| 20260509033119 | 23 | 162 | 4.8 | 4.8 | 0.00 | 0.00 | 0.00 | 90 | 1011.5 |
| 20260509032616 | 23 | 124 | 3.2 | 3.2 | 0.00 | 0.00 | 0.00 | 90 | 1011.3 |
| 20260509032113 | 23 | 148 | 1.6 | 1.6 | 0.00 | 0.00 | 0.00 | 90 | 1011.3 |
| 20260509031611 | 23 | 146 | 3.2 | 4.8 | 0.00 | 0.00 | 0.00 | 90 | 1011.5 |
| 20260509031108 | 23 | 139 | 3.2 | 6.4 | 0.00 | 0.00 | 0.00 | 90 | 1011.4 |
| 20260509030606 | 23 | 156 | 3.2 | 3.2 | 0.00 | 0.00 | 0.00 | 90 | 1011.2 |
| 20260509025559 | 23 | 113 | 1.6 | 1.6 | 0.00 | 0.00 | 0.00 | 89 | 1011.2 |
| 20260509025054 | 23 | 131 | 1.6 | 3.2 | 0.00 | 0.00 | 0.00 | 89 | 1011.4 |
| 20260509024550 | 23 | 86 | 3.2 | 4.8 | 0.00 | 0.00 | 0.00 | 89 | 1011.4 |
| 20260509024047 | 23 | 70 | 1.6 | 1.6 | 0.00 | 0.00 | 0.00 | 88 | 1011.4 |
| 20260509023545 | 23 | 95 | 4.8 | 4.8 | 0.00 | 0.00 | 0.00 | 88 | 1011.4 |
| 20260509023041 | 23 | 96 | 4.8 | 4.8 | 0.00 | 0.00 | 0.00 | 88 | 1011.3 |
| 20260509022538 | 23 | 64 | 4.8 | 6.4 | 0.00 | 0.00 | 0.00 | 88 | 1011.0 |
| 20260509022036 | 23 | 100 | 6.4 | 9.7 | 0.00 | 0.00 | 0.00 | 88 | 1011.0 |
| 20260509021533 | 23 | 105 | 9.7 | 11.3 | 0.00 | 0.00 | 0.00 | 87 | 1010.8 |
| 20260509021029 | 23 | 91 | 6.4 | 6.4 | 0.00 | 0.00 | 0.00 | 87 | 1010.8 |
| 20260509020528 | 23 | 122 | 3.2 | 3.2 | 0.00 | 0.00 | 0.00 | 87 | 1010.5 |
| 20260509020024 | 23 | 132 | 3.2 | 3.2 | 0.00 | 0.00 | 0.00 | 87 | 1010.8 |
| 20260509015523 | 24 | 134 | 6.4 | 6.4 | 0.00 | 0.00 | 0.00 | 86 | 1010.7 |
| 20260509015020 | 24 | 102 | 8.0 | 9.7 | 0.00 | 0.00 | 0.00 | 86 | 1010.9 |
| 20260509014516 | 24 | 116 | 9.7 | 11.3 | 0.00 | 0.00 | 0.00 | 86 | 1010.4 |
| 20260509014007 | 24 | 121 | 8.0 | 9.7 | 0.00 | 0.00 | 0.00 | 86 | 1010.6 |
| 20260509013504 | 24 | 75 | 6.4 | 11.3 | 0.00 | 0.00 | 0.00 | 85 | 1010.4 |
| 20260509013000 | 24 | 113 | 9.7 | 11.3 | 0.00 | 0.00 | 0.00 | 85 | 1010.5 |
| 20260509012456 | 24 | 91 | 4.8 | 4.8 | 0.00 | 0.00 | 0.00 | 85 | 1010.4 |
| 20260509011953 | 25 | 122 | 6.4 | 6.4 | 0.00 | 0.00 | 0.00 | 85 | 1010.3 |
| 20260509011451 | 25 | 102 | 3.2 | 4.8 | 0.00 | 0.00 | 0.00 | 85 | 1010.3 |
| 20260509010948 | 25 | 103 | 6.4 | 9.7 | 0.00 | 0.00 | 0.00 | 84 | 1010.5 |
| 20260509010446 | 25 | 98 | 4.8 | 6.4 | 0.00 | 0.00 | 0.00 | 84 | 1010.6 |
| 20260509005942 | 25 | 113 | 6.4 | 9.7 | 0.00 | 0.00 | 0.00 | 84 | 1010.5 |
| 20260509005440 | 25 | 94 | 3.2 | 4.8 | 0.00 | 0.00 | 0.00 | 83 | 1010.5 |
| 20260509004935 | 25 | 76 | 8.0 | 12.9 | 0.00 | 0.00 | 0.00 | 83 | 1010.3 |
| 20260509004431 | 25 | 82 | 9.7 | 11.3 | 0.00 | 0.00 | 0.00 | 83 | 1010.3 |
| 20260509003929 | 25 | 88 | 4.8 | 6.4 | 0.00 | 0.00 | 0.00 | 83 | 1010.4 |
| 20260509003427 | 25 | 64 | 4.8 | 4.8 | 0.00 | 0.00 | 0.00 | 82 | 1010.4 |
| 20260509002923 | 25 | 81 | 3.2 | 6.4 | 0.00 | 0.00 | 0.00 | 82 | 1010.5 |
| 20260509002422 | 25 | 101 | 6.4 | 9.7 | 0.00 | 0.00 | 0.00 | 82 | 1010.4 |
| 20260509001918 | 25 | 111 | 6.4 | 9.7 | 0.00 | 0.00 | 0.00 | 82 | 1010.4 |
| 20260509001415 | 25 | 113 | 6.4 | 9.7 | 0.00 | 0.00 | 0.00 | 82 | 1010.5 |
| 20260509000912 | 25 | 87 | 3.2 | 4.8 | 0.00 | 0.00 | 0.00 | 82 | 1010.4 |
| 20260509000410 | 25 | 11 | 1.6 | 1.6 | 0.00 | 0.00 | 0.00 | 82 | 1010.6 |
| 20260508235905 | 25 | 43 | 1.6 | 4.8 | 0.00 | 0.00 | 0.00 | 81 | 1010.4 |
| 20260508235403 | 25 | 96 | 4.8 | 6.4 | 0.00 | 0.00 | 0.00 | 80 | 1010.5 |
| 20260508234900 | 25 | 38 | 3.2 | 3.2 | 0.00 | 0.00 | 0.00 | 80 | 1010.4 |
| 20260508234356 | 25 | 83 | 8.0 | 11.3 | 0.00 | 0.00 | 0.00 | 80 | 1010.3 |
| 20260508233855 | 25 | 101 | 9.7 | 12.9 | 0.00 | 0.00 | 0.00 | 80 | 1010.5 |
| 20260508233354 | 25 | 104 | 8.0 | 12.9 | 0.00 | 0.00 | 0.00 | 80 | 1010.4 |
| 20260508232850 | 25 | 80 | 4.8 | 4.8 | 0.00 | 0.00 | 0.00 | 80 | 1010.6 |
| 20260508232347 | 25 | 93 | 6.4 | 6.4 | 0.00 | 0.00 | 0.00 | 80 | 1010.5 |
| 20260508231845 | 25 | 82 | 0.0 | 0.0 | 0.00 | 0.00 | 0.00 | 81 | 1010.4 |
| 20260508231341 | 25 | 125 | 1.6 | 3.2 | 0.00 | 0.00 | 0.00 | 81 | 1010.3 |
| 20260508230838 | 25 | 100 | 9.7 | 11.3 | 0.00 | 0.00 | 0.00 | 81 | 1010.3 |
| 20260508230334 | 25 | 87 | 6.4 | 6.4 | 0.00 | 0.00 | 0.00 | 81 | 1010.5 |
| 20260508225832 | 25 | 58 | 0.0 | 3.2 | 0.00 | 0.00 | 0.00 | 82 | 1010.5 |
| 20260508225328 | 25 | 89 | 6.4 | 11.3 | 0.00 | 0.00 | 0.00 | 82 | 1010.5 |
| 20260508224827 | 25 | 83 | 6.4 | 6.4 | 0.00 | 0.00 | 0.00 | 82 | 1010.6 |
| 20260508224324 | 25 | 16 | 1.6 | 3.2 | 0.00 | 0.00 | 0.00 | 82 | 1010.5 |
| 20260508223821 | 25 | 66 | 6.4 | 11.3 | 0.00 | 0.00 | 0.00 | 81 | 1010.5 |
| 20260508223318 | 25 | 68 | 3.2 | 3.2 | 0.00 | 0.00 | 0.00 | 81 | 1010.4 |
| 20260508222816 | 25 | 93 | 8.0 | 14.5 | 0.00 | 0.00 | 0.00 | 81 | 1010.3 |
| 20260508222313 | 25 | 66 | 4.8 | 9.7 | 0.00 | 0.00 | 0.00 | 81 | 1010.7 |
| 20260508221809 | 25 | 354 | 4.8 | 9.7 | 0.00 | 0.00 | 0.00 | 81 | 1010.5 |
| 20260508221305 | 25 | 16 | 4.8 | 9.7 | 0.00 | 0.00 | 0.00 | 80 | 1010.5 |
| 20260508220801 | 25 | 52 | 4.8 | 9.7 | 0.00 | 0.00 | 0.00 | 79 | 1010.6 |
| 20260508220258 | 25 | 69 | 12.9 | 14.5 | 0.00 | 0.00 | 0.00 | 80 | 1010.5 |
| 20260508215755 | 25 | 35 | 3.2 | 9.7 | 0.00 | 0.00 | 0.00 | 80 | 1010.6 |
| 20260508215251 | 25 | 71 | 8.0 | 9.7 | 0.00 | 0.00 | 0.00 | 80 | 1010.6 |
| 20260508214749 | 25 | 46 | 8.0 | 11.3 | 0.00 | 0.00 | 0.00 | 80 | 1010.7 |
| 20260508214246 | 25 | 67 | 3.2 | 6.4 | 0.00 | 0.00 | 0.00 | 79 | 1010.9 |
| 20260508213742 | 25 | 23 | 3.2 | 4.8 | 0.00 | 0.00 | 0.00 | 79 | 1010.8 |
| 20260508213238 | 25 | 75 | 1.6 | 3.2 | 0.00 | 0.00 | 0.00 | 81 | 1010.8 |
| 20260508212730 | 25 | 31 | 4.8 | 6.4 | 0.00 | 0.00 | 0.00 | 79 | 1010.7 |
| 20260508212226 | 25 | 68 | 6.4 | 12.9 | 0.00 | 0.00 | 0.00 | 78 | 1011.0 |
| 20260508211722 | 25 | 14 | 0.0 | 0.0 | 0.00 | 0.00 | 0.00 | 79 | 1011.1 |
| 20260508211218 | 25 | 103 | 3.2 | 4.8 | 0.00 | 0.00 | 0.00 | 79 | 1011.1 |
| 20260508210715 | 26 | 101 | 6.4 | 9.7 | 0.00 | 0.00 | 0.00 | 78 | 1011.2 |
| 20260508210212 | 25 | 52 | 1.6 | 4.8 | 0.00 | 0.00 | 0.00 | 79 | 1011.5 |
| 20260508205709 | 25 | 47 | 6.4 | 9.7 | 0.00 | 0.00 | 0.00 | 78 | 1011.4 |
| 20260508205205 | 25 | 79 | 3.2 | 4.8 | 0.00 | 0.00 | 0.00 | 80 | 1011.4 |
| 20260508204701 | 25 | 67 | 9.7 | 12.9 | 0.00 | 0.00 | 0.00 | 78 | 1011.5 |
| 20260508204158 | 25 | 325 | 3.2 | 4.8 | 0.00 | 0.00 | 0.00 | 78 | 1011.5 |
| 20260508203654 | 26 | 33 | 6.4 | 6.4 | 0.00 | 0.00 | 0.00 | 77 | 1011.8 |
| 20260508203150 | 25 | 327 | 0.0 | 1.6 | 0.00 | 0.00 | 0.00 | 79 | 1011.5 |
| 20260508202647 | 25 | 34 | 3.2 | 4.8 | 0.00 | 0.00 | 0.00 | 80 | 1011.6 |
| 20260508202144 | 25 | 165 | 3.2 | 4.8 | 0.00 | 0.00 | 0.00 | 78 | 1011.8 |
| 20260508201641 | 25 | 359 | 6.4 | 9.7 | 0.00 | 0.00 | 0.00 | 77 | 1011.9 |
| 20260508201137 | 24 | 56 | 1.6 | 3.2 | 0.00 | 0.00 | 0.00 | 80 | 1011.9 |
| 20260508200634 | 24 | 55 | 4.8 | 6.4 | 0.00 | 0.00 | 0.00 | 80 | 1012.1 |
| 20260508200130 | 23 | 76 | 3.2 | 4.8 | 0.00 | 0.00 | 0.00 | 79 | 1012.3 |
| 20260508195627 | 23 | 49 | 4.8 | 6.4 | 0.00 | 0.00 | 0.00 | 80 | 1012.2 |
| 20260508195123 | 24 | 53 | 6.4 | 9.7 | 0.00 | 0.00 | 0.00 | 79 | 1012.3 |
| 20260508194620 | 23 | 31 | 1.6 | 3.2 | 0.00 | 0.00 | 0.00 | 79 | 1012.5 |
| 20260508194117 | 23 | 40 | 8.0 | 11.3 | 0.00 | 0.00 | 0.00 | 79 | 1012.4 |
| 20260508193614 | 24 | 56 | 3.2 | 4.8 | 0.00 | 0.00 | 0.00 | 79 | 1012.5 |
| 20260508193110 | 23 | 81 | 6.4 | 6.4 | 0.00 | 0.00 | 0.00 | 78 | 1012.5 |
| 20260508192607 | 25 | 85 | 9.7 | 11.3 | 0.00 | 0.00 | 0.00 | 77 | 1012.4 |
| 20260508192104 | 25 | 76 | 3.2 | 4.8 | 0.00 | 0.00 | 0.00 | 77 | 1012.6 |
| 20260508191601 | 24 | 81 | 12.9 | 17.7 | 0.00 | 0.00 | 0.00 | 77 | 1012.5 |
| 20260508191057 | 24 | 97 | 6.4 | 9.7 | 0.00 | 0.00 | 0.00 | 77 | 1012.7 |
| 20260508190549 | 25 | 68 | 4.8 | 4.8 | 0.00 | 0.00 | 0.00 | 76 | 1012.5 |
| 20260508190045 | 25 | 24 | 0.0 | 0.0 | 0.00 | 0.00 | 0.00 | 77 | 1012.8 |
| 20260508185543 | 24 | 21 | 8.0 | 9.7 | 0.00 | 0.00 | 0.00 | 77 | 1012.7 |
| 20260508185040 | 23 | 353 | 4.8 | 6.4 | 0.00 | 0.00 | 0.00 | 77 | 1012.7 |
| 20260508184537 | 23 | 23 | 6.4 | 11.3 | 0.00 | 0.00 | 0.00 | 77 | 1012.9 |
| 20260508184034 | 23 | 71 | 6.4 | 11.3 | 0.00 | 0.00 | 0.00 | 77 | 1013.2 |
| 20260508183531 | 23 | 142 | 3.2 | 3.2 | 0.00 | 0.00 | 0.00 | 78 | 1013.0 |
| 20260508183027 | 23 | 55 | 3.2 | 4.8 | 0.00 | 0.00 | 0.00 | 77 | 1013.2 |
| 20260508182523 | 24 | 340 | 4.8 | 4.8 | 0.00 | 0.00 | 0.00 | 75 | 1013.5 |
| 20260508182020 | 23 | 149 | 3.2 | 4.8 | 0.00 | 0.00 | 0.00 | 77 | 1013.4 |
| 20260508181515 | 24 | 39 | 0.0 | 1.6 | 0.00 | 0.00 | 0.00 | 76 | 1013.5 |
| 20260508181013 | 23 | 315 | 1.6 | 3.2 | 0.00 | 0.00 | 0.00 | 77 | 1013.5 |
| 20260508180509 | 23 | 72 | 3.2 | 3.2 | 0.00 | 0.00 | 0.00 | 76 | 1013.8 |
| 20260508180006 | 24 | 38 | 6.4 | 9.7 | 0.00 | 0.00 | 0.00 | 75 | 1013.8 |
| 20260508175502 | 23 | 23 | 1.6 | 1.6 | 0.00 | 0.00 | 0.00 | 77 | 1013.9 |
| 20260508175000 | 22 | 14 | 1.6 | 1.6 | 0.00 | 0.00 | 0.00 | 79 | 1013.8 |
| 20260508174457 | 22 | 89 | 9.7 | 11.3 | 0.00 | 0.00 | 0.00 | 78 | 1014.0 |
| 20260508173954 | 21 | 82 | 1.6 | 3.2 | 0.00 | 0.00 | 0.00 | 81 | 1013.8 |
| 20260508173451 | 22 | 80 | 3.2 | 4.8 | 0.00 | 0.00 | 0.00 | 82 | 1013.9 |
| 20260508172947 | 21 | 332 | 1.6 | 3.2 | 0.00 | 0.00 | 0.00 | 79 | 1014.0 |
| 20260508172444 | 21 | 58 | 3.2 | 4.8 | 0.00 | 0.00 | 0.00 | 80 | 1014.0 |
| 20260508171941 | 21 | 0 | 4.8 | 4.8 | 0.00 | 0.00 | 0.00 | 81 | 1014.0 |
| 20260508171437 | 21 | 26 | 8.0 | 11.3 | 0.00 | 0.00 | 0.00 | 80 | 1014.1 |
| 20260508170934 | 21 | 345 | 8.0 | 9.7 | 0.00 | 0.00 | 0.00 | 80 | 1014.3 |
| 20260508170431 | 20 | 65 | 3.2 | 6.4 | 0.00 | 0.00 | 0.00 | 82 | 1014.3 |
| 20260508165928 | 21 | 13 | 3.2 | 3.2 | 0.00 | 0.00 | 0.00 | 81 | 1014.2 |
| 20260508165426 | 20 | 307 | 1.6 | 1.6 | 0.00 | 0.00 | 0.00 | 81 | 1014.6 |
| 20260508164921 | 21 | 302 | 4.8 | 4.8 | 0.00 | 0.00 | 0.00 | 81 | 1014.5 |
| 20260508164419 | 20 | 342 | 3.2 | 3.2 | 0.00 | 0.00 | 0.00 | 80 | 1014.7 |
| 20260508163916 | 20 | 24 | 0.0 | 1.6 | 0.00 | 0.00 | 0.00 | 81 | 1014.7 |
| 20260508163414 | 20 | 17 | 0.0 | 1.6 | 0.00 | 0.00 | 0.00 | 82 | 1014.7 |
| 20260508162909 | 20 | 32 | 1.6 | 1.6 | 0.00 | 0.00 | 0.00 | 81 | 1015.0 |
| 20260508162407 | 20 | 334 | 1.6 | 1.6 | 0.00 | 0.00 | 0.00 | 82 | 1014.9 |
| 20260508161903 | 20 | 13 | 1.6 | 4.8 | 0.00 | 0.00 | 0.00 | 81 | 1014.9 |
| 20260508161401 | 20 | 308 | 1.6 | 1.6 | 0.00 | 0.00 | 0.00 | 80 | 1014.9 |
| 20260508160858 | 20 | 19 | 4.8 | 4.8 | 0.00 | 0.00 | 0.00 | 80 | 1014.7 |
| 20260508160356 | 20 | 346 | 0.0 | 1.6 | 0.00 | 0.00 | 0.00 | 80 | 1015.2 |
| 20260508155852 | 20 | 19 | 3.2 | 3.2 | 0.00 | 0.00 | 0.00 | 82 | 1015.1 |
| 20260508155350 | 20 | 299 | 1.6 | 3.2 | 0.00 | 0.00 | 0.00 | 81 | 1015.1 |
| 20260508154846 | 20 | 292 | 1.6 | 3.2 | 0.00 | 0.00 | 0.00 | 81 | 1015.0 |
| 20260508154344 | 19 | 299 | 1.6 | 1.6 | 0.00 | 0.00 | 0.00 | 82 | 1015.1 |
| 20260508153840 | 19 | 315 | 1.6 | 1.6 | 0.00 | 0.00 | 0.00 | 82 | 1015.3 |
| 20260508153338 | 19 | 270 | 1.6 | 3.2 | 0.00 | 0.00 | 0.00 | 83 | 1015.2 |
| 20260508152833 | 19 | 318 | 1.6 | 3.2 | 0.00 | 0.00 | 0.00 | 83 | 1015.3 |
| 20260508152330 | 19 | 26 | 0.0 | 1.6 | 0.00 | 0.00 | 0.00 | 84 | 1015.2 |
| 20260508151826 | 18 | 193 | 0.0 | 0.0 | 0.00 | 0.00 | 0.00 | 83 | 1015.3 |
| 20260508151324 | 18 | 86 | 0.0 | 0.0 | 0.00 | 0.00 | 0.00 | 83 | 1015.4 |
| 20260508150820 | 18 | 91 | 1.6 | 3.2 | 0.00 | 0.00 | 0.00 | 85 | 1015.3 |
| 20260508150316 | 18 | 30 | 1.6 | 3.2 | 0.00 | 0.00 | 0.00 | 85 | 1015.3 |
| 20260508145807 | 18 | 125 | 4.8 | 4.8 | 0.00 | 0.00 | 0.00 | 85 | 1015.3 |
| 20260508145306 | 18 | 74 | 3.2 | 4.8 | 0.00 | 0.00 | 0.00 | 84 | 1015.1 |
| 20260508144800 | 18 | 62 | 1.6 | 4.8 | 0.00 | 0.00 | 0.00 | 85 | 1015.3 |
| 20260508144258 | 18 | 46 | 1.6 | 1.6 | 0.00 | 0.00 | 0.00 | 85 | 1015.3 |
| 20260508143756 | 18 | 26 | 1.6 | 3.2 | 0.00 | 0.00 | 0.00 | 84 | 1015.3 |
| 20260508143252 | 18 | 123 | 1.6 | 3.2 | 0.00 | 0.00 | 0.00 | 85 | 1015.2 |
| 20260508142749 | 17 | 87 | 6.4 | 6.4 | 0.00 | 0.00 | 0.00 | 85 | 1015.2 |
| 20260508142246 | 18 | 95 | 11.3 | 12.9 | 0.00 | 0.00 | 0.00 | 83 | 1015.3 |
| 20260508141742 | 17 | 70 | 3.2 | 3.2 | 0.00 | 0.00 | 0.00 | 84 | 1015.2 |
| 20260508141240 | 17 | 112 | 0.0 | 1.6 | 0.00 | 0.00 | 0.00 | 85 | 1015.4 |
| 20260508140737 | 17 | 23 | 1.6 | 3.2 | 0.00 | 0.00 | 0.00 | 85 | 1015.3 |
| 20260508140233 | 17 | 23 | 3.2 | 4.8 | 0.00 | 0.00 | 0.00 | 83 | 1015.3 |
| 20260508135730 | 17 | 35 | 0.0 | 0.0 | 0.00 | 0.00 | 0.00 | 85 | 1015.1 |
| 20260508135226 | 17 | 10 | 3.2 | 4.8 | 0.00 | 0.00 | 0.00 | 85 | 1015.2 |
| 20260508134721 | 17 | 46 | 0.0 | 0.0 | 0.00 | 0.00 | 0.00 | 85 | 1015.6 |
| 20260508134219 | 17 | 71 | 0.0 | 0.0 | 0.00 | 0.00 | 0.00 | 85 | 1015.5 |
| 20260508133716 | 17 | 31 | 0.0 | 0.0 | 0.00 | 0.00 | 0.00 | 86 | 1015.5 |
| 20260508133214 | 16 | 26 | 3.2 | 4.8 | 0.00 | 0.00 | 0.00 | 85 | 1015.3 |
| 20260508132711 | 16 | 345 | 0.0 | 0.0 | 0.00 | 0.00 | 0.00 | 85 | 1015.5 |
| 20260508132208 | 16 | 331 | 1.6 | 1.6 | 0.00 | 0.00 | 0.00 | 85 | 1015.7 |
| 20260508131703 | 16 | 334 | 0.0 | 0.0 | 0.00 | 0.00 | 0.00 | 85 | 1015.7 |
| 20260508131200 | 16 | 335 | 0.0 | 0.0 | 0.00 | 0.00 | 0.00 | 86 | 1015.6 |
| 20260508130657 | 16 | 346 | 0.0 | 1.6 | 0.00 | 0.00 | 0.00 | 86 | 1015.4 |
| 20260508130154 | 16 | 48 | 1.6 | 3.2 | 0.00 | 0.00 | 0.00 | 86 | 1015.4 |
| 20260508125649 | 16 | 46 | 3.2 | 3.2 | 0.00 | 0.00 | 0.00 | 86 | 1015.5 |
| 20260508125146 | 16 | 52 | 0.0 | 0.0 | 0.00 | 0.00 | 0.00 | 86 | 1015.5 |
| 20260508124644 | 16 | 348 | 0.0 | 1.6 | 0.00 | 0.00 | 0.00 | 87 | 1015.4 |
| 20260508124141 | 16 | 24 | 3.2 | 3.2 | 0.00 | 0.00 | 0.00 | 86 | 1015.4 |
| 20260508123640 | 16 | 11 | 4.8 | 4.8 | 0.00 | 0.00 | 0.00 | 86 | 1015.7 |
| 20260508123137 | 16 | 42 | 0.0 | 0.0 | 0.00 | 0.00 | 0.00 | 86 | 1015.8 |
| 20260508122633 | 16 | 347 | 3.2 | 3.2 | 0.00 | 0.00 | 0.00 | 86 | 1015.7 |
| 20260508122130 | 16 | 4 | 1.6 | 3.2 | 0.00 | 0.00 | 0.00 | 86 | 1015.9 |
| 20260508121628 | 16 | 18 | 0.0 | 1.6 | 0.00 | 0.00 | 0.00 | 86 | 1015.8 |
| 20260508121126 | 16 | 37 | 4.8 | 4.8 | 0.00 | 0.00 | 0.00 | 86 | 1015.9 |
| 20260508120623 | 16 | 16 | 3.2 | 3.2 | 0.00 | 0.00 | 0.00 | 86 | 1015.9 |
| 20260508120122 | 16 | 79 | 4.8 | 4.8 | 0.00 | 0.00 | 0.00 | 86 | 1016.0 |
| 20260508115619 | 16 | 35 | 3.2 | 4.8 | 0.00 | 0.00 | 0.00 | 86 | 1015.8 |
| 20260508115116 | 16 | 0 | 0.0 | 0.0 | 0.00 | 0.00 | 0.00 | 86 | 1016.0 |
| 20260508114613 | 16 | 9 | 3.2 | 4.8 | 0.00 | 0.00 | 0.00 | 86 | 1016.1 |
| 20260508114108 | 16 | 17 | 1.6 | 1.6 | 0.00 | 0.00 | 0.00 | 86 | 1016.0 |
| 20260508113606 | 16 | 352 | 1.6 | 3.2 | 0.00 | 0.00 | 0.00 | 86 | 1016.4 |
| 20260508113105 | 16 | 347 | 3.2 | 4.8 | 0.00 | 0.00 | 0.00 | 86 | 1016.3 |
| 20260508112559 | 16 | 347 | 3.2 | 3.2 | 0.00 | 0.00 | 0.00 | 86 | 1016.2 |
| 20260508112057 | 16 | 337 | 4.8 | 6.4 | 0.00 | 0.00 | 0.00 | 86 | 1016.2 |
| 20260508111554 | 16 | 19 | 3.2 | 4.8 | 0.00 | 0.00 | 0.00 | 86 | 1016.2 |
| 20260508111051 | 16 | 33 | 3.2 | 6.4 | 0.00 | 0.00 | 0.00 | 86 | 1015.8 |
| 20260508110549 | 16 | 24 | 3.2 | 6.4 | 0.00 | 0.00 | 0.00 | 85 | 1015.8 |
| 20260508110044 | 16 | 23 | 3.2 | 3.2 | 0.00 | 0.00 | 0.00 | 85 | 1015.8 |
| 20260508105539 | 16 | 350 | 1.6 | 3.2 | 0.00 | 0.00 | 0.00 | 85 | 1015.7 |
| 20260508105037 | 16 | 13 | 4.8 | 6.4 | 0.00 | 0.00 | 0.00 | 84 | 1015.8 |
| 20260508104535 | 16 | 329 | 3.2 | 3.2 | 0.00 | 0.00 | 0.00 | 84 | 1015.8 |
| 20260508104031 | 16 | 331 | 6.4 | 9.7 | 0.00 | 0.00 | 0.00 | 84 | 1015.4 |
| 20260508103528 | 16 | 337 | 3.2 | 4.8 | 0.00 | 0.00 | 0.00 | 84 | 1015.5 |
| 20260508103025 | 16 | 340 | 4.8 | 6.4 | 0.00 | 0.00 | 0.00 | 84 | 1015.6 |
| 20260508102523 | 16 | 339 | 4.8 | 6.4 | 0.00 | 0.00 | 0.00 | 84 | 1015.9 |
| 20260508102021 | 16 | 23 | 4.8 | 4.8 | 0.00 | 0.00 | 0.00 | 84 | 1016.1 |
| 20260508101518 | 16 | 351 | 4.8 | 4.8 | 0.00 | 0.00 | 0.00 | 84 | 1016.3 |
| 20260508101015 | 16 | 307 | 0.0 | 0.0 | 0.00 | 0.00 | 0.00 | 84 | 1016.2 |
| 20260508100513 | 16 | 358 | 0.0 | 0.0 | 0.00 | 0.00 | 0.00 | 84 | 1016.1 |
| 20260508100010 | 16 | 6 | 4.8 | 4.8 | 0.00 | 0.00 | 0.00 | 84 | 1016.2 |
| 20260508095507 | 16 | 337 | 3.2 | 4.8 | 0.00 | 0.00 | 0.00 | 84 | 1016.4 |
| 20260508095003 | 16 | 333 | 1.6 | 1.6 | 0.00 | 0.00 | 0.00 | 84 | 1016.3 |
| 20260508094501 | 16 | 23 | 3.2 | 3.2 | 0.00 | 0.00 | 0.00 | 84 | 1016.4 |
| 20260508093957 | 16 | 351 | 1.6 | 1.6 | 0.00 | 0.00 | 0.00 | 84 | 1016.4 |
| 20260508093454 | 16 | 313 | 1.6 | 3.2 | 0.00 | 0.00 | 0.00 | 84 | 1016.4 |
| 20260508092952 | 16 | 6 | 4.8 | 4.8 | 0.00 | 0.00 | 0.00 | 85 | 1016.2 |
| 20260508092449 | 16 | 330 | 0.0 | 1.6 | 0.00 | 0.00 | 0.00 | 85 | 1016.1 |
| 20260508091948 | 16 | 2 | 1.6 | 3.2 | 0.00 | 0.00 | 0.00 | 85 | 1016.0 |
| 20260508091444 | 16 | 336 | 1.6 | 1.6 | 0.00 | 0.00 | 0.00 | 86 | 1016.2 |
| 20260508090942 | 16 | 355 | 3.2 | 3.2 | 0.00 | 0.00 | 0.00 | 86 | 1015.9 |
| 20260508090440 | 16 | 353 | 0.0 | 0.0 | 0.00 | 0.00 | 0.00 | 86 | 1016.0 |
| 20260508085935 | 16 | 344 | 0.0 | 0.0 | 0.00 | 0.00 | 0.00 | 86 | 1015.9 |
| 20260508085427 | 16 | 354 | 1.6 | 1.6 | 0.00 | 0.00 | 0.00 | 85 | 1015.8 |
| 20260508084923 | 16 | 36 | 3.2 | 3.2 | 0.00 | 0.00 | 0.00 | 85 | 1015.8 |
| 20260508084420 | 16 | 7 | 1.6 | 1.6 | 0.00 | 0.00 | 0.00 | 85 | 1015.8 |
| 20260508083918 | 16 | 5 | 0.0 | 1.6 | 0.00 | 0.00 | 0.00 | 85 | 1015.8 |
| 20260508083415 | 16 | 351 | 1.6 | 1.6 | 0.00 | 0.00 | 0.00 | 85 | 1015.8 |
| 20260508082915 | 16 | 340 | 1.6 | 1.6 | 0.00 | 0.00 | 0.00 | 85 | 1016.2 |
| 20260508082412 | 16 | 352 | 1.6 | 1.6 | 0.00 | 0.00 | 0.00 | 85 | 1015.9 |
| 20260508081910 | 16 | 347 | 0.0 | 0.0 | 0.00 | 0.00 | 0.00 | 85 | 1016.1 |
| 20260508081407 | 16 | 353 | 0.0 | 1.6 | 0.00 | 0.00 | 0.00 | 84 | 1016.0 |
| 20260508080903 | 16 | 26 | 0.0 | 1.6 | 0.00 | 0.00 | 0.00 | 84 | 1015.9 |
| 20260508080402 | 16 | 25 | 0.0 | 1.6 | 0.00 | 0.00 | 0.00 | 84 | 1015.9 |
| 20260508075857 | 16 | 16 | 0.0 | 1.6 | 0.00 | 0.00 | 0.00 | 84 | 1015.9 |
| 20260508075355 | 16 | 39 | 0.0 | 0.0 | 0.00 | 0.00 | 0.00 | 85 | 1015.9 |
| 20260508074852 | 16 | 349 | 1.6 | 3.2 | 0.00 | 0.00 | 0.00 | 84 | 1015.8 |
| 20260508074349 | 16 | 15 | 4.8 | 6.4 | 0.00 | 0.00 | 0.00 | 84 | 1015.4 |
| 20260508073846 | 16 | 21 | 3.2 | 4.8 | 0.00 | 0.00 | 0.00 | 84 | 1015.6 |
| 20260508073344 | 16 | 3 | 4.8 | 6.4 | 0.00 | 0.00 | 0.00 | 85 | 1015.6 |
| 20260508072841 | 16 | 42 | 3.2 | 3.2 | 0.00 | 0.00 | 0.00 | 85 | 1016.0 |
| 20260508072337 | 16 | 7 | 4.8 | 6.4 | 0.00 | 0.00 | 0.00 | 85 | 1015.9 |
| 20260508071834 | 16 | 34 | 4.8 | 6.4 | 0.00 | 0.00 | 0.00 | 85 | 1015.9 |
| 20260508071333 | 16 | 353 | 4.8 | 4.8 | 0.00 | 0.00 | 0.00 | 84 | 1015.7 |
| 20260508070830 | 16 | 7 | 6.4 | 6.4 | 0.00 | 0.00 | 0.00 | 84 | 1016.1 |
| 20260508070328 | 16 | 13 | 1.6 | 1.6 | 0.00 | 0.00 | 0.00 | 84 | 1016.4 |
| 20260508065825 | 16 | 23 | 1.6 | 3.2 | 0.00 | 0.00 | 0.00 | 85 | 1016.4 |
| 20260508065324 | 16 | 21 | 1.6 | 1.6 | 0.00 | 0.00 | 0.00 | 85 | 1016.2 |
| 20260508064822 | 16 | 0 | 1.6 | 3.2 | 0.00 | 0.00 | 0.00 | 85 | 1016.4 |
| 20260508064319 | 16 | 0 | 1.6 | 3.2 | 0.00 | 0.00 | 0.00 | 84 | 1016.4 |
| 20260508063816 | 16 | 357 | 3.2 | 3.2 | 0.00 | 0.00 | 0.00 | 84 | 1016.7 |
| 20260508063314 | 16 | 358 | 1.6 | 1.6 | 0.00 | 0.00 | 0.00 | 84 | 1016.8 |
| 20260508062811 | 16 | 5 | 0.0 | 0.0 | 0.00 | 0.00 | 0.00 | 85 | 1016.9 |
| 20260508062308 | 16 | 337 | 3.2 | 3.2 | 0.00 | 0.00 | 0.00 | 84 | 1017.0 |
| 20260508061805 | 15 | 320 | 3.2 | 3.2 | 0.00 | 0.00 | 0.00 | 85 | 1017.3 |
| 20260508061302 | 15 | 319 | 0.0 | 0.0 | 0.00 | 0.00 | 0.00 | 85 | 1016.8 |
| 20260508060759 | 15 | 339 | 1.6 | 3.2 | 0.00 | 0.00 | 0.00 | 85 | 1016.9 |
| 20260508060257 | 16 | 36 | 0.0 | 0.0 | 0.00 | 0.00 | 0.00 | 85 | 1016.6 |
| 20260508055752 | 16 | 15 | 0.0 | 0.0 | 0.00 | 0.00 | 0.00 | 85 | 1016.6 |
| 20260508055249 | 16 | 14 | 1.6 | 3.2 | 0.00 | 0.00 | 0.00 | 84 | 1016.5 |
| 20260508054745 | 16 | 1 | 1.6 | 3.2 | 0.00 | 0.00 | 0.00 | 84 | 1016.8 |
| 20260508054244 | 16 | 355 | 0.0 | 0.0 | 0.00 | 0.00 | 0.00 | 84 | 1016.9 |
| 20260508053740 | 16 | 320 | 0.0 | 0.0 | 0.00 | 0.00 | 0.00 | 84 | 1016.9 |
| 20260508053238 | 16 | 308 | 1.6 | 3.2 | 0.00 | 0.00 | 0.00 | 84 | 1016.9 |
| 20260508052735 | 16 | 325 | 3.2 | 3.2 | 0.00 | 0.00 | 0.00 | 85 | 1016.6 |
| 20260508052232 | 16 | 332 | 3.2 | 4.8 | 0.00 | 0.00 | 0.00 | 85 | 1016.5 |
| 20260508051728 | 16 | 336 | 3.2 | 3.2 | 0.00 | 0.00 | 0.00 | 85 | 1016.6 |
| 20260508051223 | 16 | 37 | 3.2 | 4.8 | 0.00 | 0.00 | 0.00 | 85 | 1016.2 |
| 20260508050720 | 16 | 26 | 0.0 | 0.0 | 0.00 | 0.00 | 0.00 | 84 | 1016.5 |
| 20260508050217 | 16 | 12 | 0.0 | 0.0 | 0.00 | 0.00 | 0.00 | 84 | 1016.8 |
| 20260508045713 | 16 | 349 | 3.2 | 4.8 | 0.00 | 0.00 | 0.00 | 84 | 1017.1 |
| 20260508045211 | 16 | 312 | 0.0 | 1.6 | 0.00 | 0.00 | 0.00 | 84 | 1017.2 |
| 20260508044708 | 16 | 293 | 1.6 | 3.2 | 0.00 | 0.00 | 0.00 | 85 | 1017.4 |
| 20260508044204 | 16 | 316 | 4.8 | 4.8 | 0.00 | 0.00 | 0.00 | 85 | 1017.2 |
| 20260508043700 | 15 | 10 | 1.6 | 1.6 | 0.00 | 0.00 | 0.00 | 86 | 1016.6 |
| 20260508043158 | 16 | 27 | 0.0 | 0.0 | 0.00 | 0.00 | 0.00 | 85 | 1016.3 |
| 20260508042654 | 16 | 64 | 3.2 | 4.8 | 0.00 | 0.00 | 0.00 | 85 | 1016.3 |
| 20260508042152 | 16 | 40 | 3.2 | 3.2 | 0.00 | 0.00 | 0.00 | 84 | 1016.6 |
| 20260508041648 | 16 | 315 | 4.8 | 4.8 | 0.00 | 0.00 | 0.00 | 84 | 1017.4 |